Location: Columbia
(38.9520°N, 92.3340°W)
Time: 13:27:40
(UTC-05:00)

Cosmos 2219 Rocket - Visible Passes

Search period start: 30 May 2015 00:00
Search period end: 09 June 2015 00:00
Orbit: 827 x 848 km, 71.0° (Epoch: 29 May)

Date Brightness Start Highest point End Pass type
(mag) Time Alt. Az. Time Alt. Az. Time Alt. Az.
30 May 4.8 00:23:41 10° W 00:27:01 15° NW 00:30:09 10° NNW visible
30 May 2.1 22:20:38 11° SSW 22:25:56 76° ESE 22:31:35 10° NNE visible
31 May 4.8 00:07:04 10° W 00:10:39 16° NW 00:14:02 10° NNW visible
31 May 2.1 22:04:06 10° SSW 22:09:39 70° ESE 22:15:16 10° NNE visible
31 May 4.7 23:50:29 10° W 23:54:16 18° NW 23:57:53 10° N visible
01 Jun 2.1 21:47:50 10° S 21:53:21 64° ESE 21:58:57 10° NNE visible
01 Jun 4.7 23:33:55 10° W 23:37:54 19° NW 23:41:44 10° N visible
02 Jun 2.2 21:31:35 10° S 21:37:03 59° ESE 21:42:37 10° NNE visible
02 Jun 4.6 23:17:22 10° W 23:21:31 20° NW 23:25:33 10° N visible
03 Jun 2.3 21:15:21 10° S 21:20:46 54° ESE 21:26:17 10° NNE visible
03 Jun 4.6 23:00:50 10° WSW 23:05:09 22° NW 23:09:22 10° N visible
04 Jun 2.4 20:59:07 10° S 21:04:29 50° ESE 21:09:56 10° NNE visible
04 Jun 4.6 22:44:19 10° WSW 22:48:48 23° NW 22:53:10 10° N visible
05 Jun 4.5 22:27:49 10° WSW 22:32:26 25° NW 22:36:58 10° N visible
06 Jun 4.4 22:11:21 10° WSW 22:16:05 27° NW 22:20:45 10° N visible
07 Jun 4.4 21:54:53 10° WSW 21:59:43 28° WNW 22:04:32 10° N visible
08 Jun 5.4 05:06:00 10° NNE 05:09:31 17° NE 05:13:14 10° E visible
08 Jun 4.3 21:38:25 10° WSW 21:43:22 31° WNW 21:48:18 10° N visible
